| time (UTC) | temp F | wind direction | speed MPH | gust MPH | rain 1hr in | rain 24hr in | rain mn in | humidity % | barometer mb |
| 20260904090723 | 64 | 343 | 0.0 | 0.0 | 0.00 | 0.00 | 0.00 | 90 | 1014.6 |
| 20260904090218 | 64 | 340 | 0.0 | 0.0 | 0.00 | 0.00 | 0.00 | 90 | 1014.9 |
| 20260904085713 | 64 | 336 | 0.0 | 1.0 | 0.00 | 0.00 | 0.00 | 90 | 1014.9 |
| 20260904085208 | 64 | 338 | 0.0 | 0.0 | 0.00 | 0.00 | 0.00 | 90 | 1014.9 |
| 20260904084703 | 64 | 336 | 0.0 | 0.0 | 0.00 | 0.00 | 0.00 | 90 | 1014.9 |
| 20260904084159 | 64 | 343 | 0.0 | 0.0 | 0.00 | 0.00 | 0.00 | 90 | 1014.9 |
| 20260904083655 | 64 | 341 | 0.0 | 0.0 | 0.00 | 0.00 | 0.00 | 90 | 1014.9 |
| 20260904083151 | 64 | 342 | 0.0 | 0.0 | 0.00 | 0.00 | 0.00 | 90 | 1014.9 |
| 20260904082646 | 64 | 344 | 0.0 | 0.0 | 0.00 | 0.00 | 0.00 | 90 | 1015.3 |
| 20260904082141 | 64 | 344 | 0.0 | 0.0 | 0.00 | 0.00 | 0.00 | 90 | 1014.9 |
| 20260904081637 | 64 | 336 | 0.0 | 0.0 | 0.00 | 0.00 | 0.00 | 90 | 1014.9 |
| 20260904081132 | 64 | 334 | 0.0 | 0.0 | 0.00 | 0.00 | 0.00 | 90 | 1014.9 |
| 20260904080627 | 65 | 343 | 0.0 | 0.0 | 0.00 | 0.00 | 0.00 | 90 | 1014.9 |
| 20260904080123 | 65 | 332 | 0.0 | 0.0 | 0.00 | 0.00 | 0.00 | 90 | 1014.9 |
| 20260904075620 | 65 | 337 | 0.0 | 0.0 | 0.00 | 0.00 | 0.00 | 90 | 1015.6 |
| 20260904075119 | 65 | 344 | 0.0 | 0.0 | 0.00 | 0.00 | 0.00 | 90 | 1015.6 |
| 20260904074618 | 65 | 344 | 0.0 | 0.0 | 0.00 | 0.00 | 0.00 | 89 | 1015.3 |
| 20260904074113 | 65 | 342 | 0.0 | 0.0 | 0.00 | 0.00 | 0.00 | 90 | 1015.3 |
| 20260904073608 | 65 | 347 | 0.0 | 0.0 | 0.00 | 0.00 | 0.00 | 90 | 1015.3 |
| 20260904073105 | 66 | 347 | 0.0 | 0.0 | 0.00 | 0.00 | 0.00 | 89 | 1015.3 |
| 20260904072600 | 65 | 350 | 0.0 | 0.0 | 0.00 | 0.00 | 0.00 | 89 | 1015.3 |
| 20260904072055 | 65 | 342 | 0.0 | 0.0 | 0.00 | 0.00 | 0.00 | 89 | 1015.3 |
| 20260904071551 | 65 | 348 | 0.0 | 0.0 | 0.00 | 0.00 | 0.00 | 89 | 1015.3 |
| 20260904071046 | 66 | 346 | 0.0 | 0.0 | 0.00 | 0.00 | 0.00 | 89 | 1015.3 |
| 20260904070544 | 66 | 350 | 0.0 | 0.0 | 0.00 | 0.00 | 0.00 | 89 | 1014.9 |
| 20260904070040 | 66 | 352 | 0.0 | 0.0 | 0.00 | 0.00 | 0.00 | 89 | 1014.9 |
| 20260904065534 | 66 | 352 | 0.0 | 0.0 | 0.00 | 0.00 | 0.00 | 89 | 1015.3 |
| 20260904065031 | 65 | 348 | 0.0 | 0.0 | 0.00 | 0.00 | 0.00 | 89 | 1015.3 |
| 20260904064527 | 66 | 344 | 0.0 | 0.0 | 0.00 | 0.00 | 0.00 | 89 | 1015.3 |
| 20260904064021 | 66 | 343 | 0.0 | 0.0 | 0.00 | 0.00 | 0.00 | 89 | 1014.9 |
| 20260904063518 | 66 | 343 | 0.0 | 0.0 | 0.00 | 0.00 | 0.00 | 89 | 1014.9 |
| 20260904063018 | 66 | 347 | 0.0 | 0.0 | 0.00 | 0.00 | 0.00 | 89 | 1014.9 |
| 20260904062514 | 66 | 346 | 0.0 | 0.0 | 0.00 | 0.00 | 0.00 | 88 | 1014.9 |
| 20260904062009 | 66 | 342 | 0.0 | 0.0 | 0.00 | 0.00 | 0.00 | 88 | 1014.9 |
| 20260904061505 | 66 | 348 | 0.0 | 0.0 | 0.00 | 0.00 | 0.00 | 88 | 1014.9 |
| 20260904061001 | 66 | 341 | 0.0 | 0.0 | 0.00 | 0.00 | 0.00 | 88 | 1014.9 |
| 20260904060457 | 66 | 345 | 0.0 | 0.0 | 0.00 | 0.00 | 0.00 | 88 | 1014.9 |
| 20260904055953 | 66 | 346 | 0.0 | 0.0 | 0.00 | 0.00 | 0.00 | 87 | 1014.9 |
| 20260904055448 | 66 | 347 | 0.0 | 0.0 | 0.00 | 0.00 | 0.00 | 87 | 1014.9 |
| 20260904054943 | 66 | 351 | 0.0 | 0.0 | 0.00 | 0.00 | 0.00 | 87 | 1014.9 |
| 20260904054439 | 67 | 343 | 0.0 | 0.0 | 0.00 | 0.00 | 0.00 | 87 | 1014.6 |
| 20260904053935 | 67 | 348 | 0.0 | 0.0 | 0.00 | 0.00 | 0.00 | 86 | 1014.9 |
| 20260904053434 | 67 | 347 | 0.0 | 0.0 | 0.00 | 0.00 | 0.00 | 86 | 1014.9 |
| 20260904052930 | 67 | 345 | 0.0 | 0.0 | 0.00 | 0.00 | 0.00 | 86 | 1014.9 |
| 20260904052426 | 67 | 339 | 0.0 | 0.0 | 0.00 | 0.00 | 0.00 | 85 | 1014.9 |
| 20260904051922 | 68 | 338 | 0.0 | 0.0 | 0.00 | 0.00 | 0.00 | 85 | 1014.9 |
| 20260904051418 | 68 | 340 | 0.0 | 0.0 | 0.00 | 0.00 | 0.00 | 85 | 1014.9 |
| 20260904050912 | 68 | 327 | 0.0 | 1.0 | 0.00 | 0.00 | 0.00 | 84 | 1015.3 |
| 20260904050409 | 68 | 328 | 0.0 | 1.0 | 0.00 | 0.00 | 0.00 | 84 | 1014.9 |
| 20260904045908 | 68 | 329 | 0.0 | 0.0 | 0.00 | 0.00 | 0.00 | 83 | 1014.9 |
| 20260904045404 | 68 | 333 | 0.0 | 0.0 | 0.00 | 0.00 | 0.00 | 83 | 1014.9 |
| 20260904044903 | 68 | 334 | 1.0 | 1.0 | 0.00 | 0.00 | 0.00 | 83 | 1014.9 |
| 20260904044400 | 68 | 334 | 0.0 | 1.0 | 0.00 | 0.00 | 0.00 | 82 | 1014.9 |
| 20260904043856 | 68 | 343 | 0.0 | 0.0 | 0.00 | 0.00 | 0.00 | 82 | 1014.9 |
| 20260904043352 | 68 | 339 | 0.0 | 1.0 | 0.00 | 0.00 | 0.00 | 81 | 1014.9 |
| 20260904042847 | 68 | 310 | 0.0 | 1.0 | 0.00 | 0.00 | 0.00 | 81 | 1014.9 |
| 20260904042343 | 68 | 331 | 0.0 | 1.0 | 0.00 | 0.00 | 0.00 | 81 | 1014.9 |
| 20260904041837 | 68 | 342 | 0.0 | 1.0 | 0.00 | 0.00 | 0.00 | 81 | 1014.9 |
| 20260904041334 | 68 | 340 | 0.0 | 1.0 | 0.00 | 0.00 | 0.00 | 81 | 1014.9 |
| 20260904040830 | 68 | 338 | 1.0 | 3.0 | 0.00 | 0.00 | 0.00 | 81 | 1014.6 |
| 20260904040325 | 68 | 300 | 1.0 | 1.0 | 0.00 | 0.00 | 0.00 | 81 | 1014.9 |
| 20260904035821 | 68 | 286 | 1.0 | 2.0 | 0.00 | 0.00 | 0.00 | 82 | 1014.9 |
| 20260904035317 | 68 | 284 | 1.0 | 2.0 | 0.00 | 0.00 | 0.00 | 83 | 1014.9 |
| 20260904034815 | 68 | 343 | 0.0 | 1.0 | 0.00 | 0.00 | 0.00 | 83 | 1014.6 |
| 20260904034311 | 68 | 339 | 0.0 | 1.0 | 0.00 | 0.00 | 0.00 | 83 | 1014.9 |
| 20260904033807 | 68 | 340 | 0.0 | 1.0 | 0.00 | 0.00 | 0.00 | 83 | 1014.6 |
| 20260904033303 | 68 | 271 | 1.0 | 1.0 | 0.00 | 0.00 | 0.00 | 83 | 1014.6 |
| 20260904032759 | 69 | 297 | 1.0 | 2.0 | 0.00 | 0.00 | 0.00 | 83 | 1014.6 |
| 20260904032258 | 69 | 319 | 0.0 | 1.0 | 0.00 | 0.00 | 0.00 | 83 | 1014.3 |
| 20260904031753 | 69 | 271 | 2.0 | 3.0 | 0.00 | 0.00 | 0.00 | 83 | 1014.6 |
| 20260904031248 | 69 | 231 | 2.0 | 3.0 | 0.00 | 0.00 | 0.00 | 83 | 1014.6 |
| 20260904030744 | 69 | 273 | 2.0 | 3.0 | 0.00 | 0.00 | 0.00 | 83 | 1014.3 |
| 20260904030239 | 69 | 295 | 2.0 | 3.0 | 0.00 | 0.00 | 0.00 | 83 | 1014.3 |
| 20260904025736 | 69 | 292 | 1.0 | 2.0 | 0.00 | 0.00 | 0.00 | 83 | 1014.3 |
| 20260904025230 | 69 | 311 | 1.0 | 2.0 | 0.00 | 0.00 | 0.00 | 82 | 1014.3 |
| 20260904024721 | 69 | 289 | 2.0 | 3.0 | 0.00 | 0.00 | 0.00 | 82 | 1014.3 |
| 20260904024215 | 69 | 265 | 2.0 | 3.0 | 0.00 | 0.00 | 0.00 | 82 | 1014.3 |
| 20260904023711 | 69 | 295 | 2.0 | 4.0 | 0.00 | 0.00 | 0.00 | 82 | 1014.3 |
| 20260904023208 | 69 | 324 | 1.0 | 2.0 | 0.00 | 0.00 | 0.00 | 82 | 1014.3 |
| 20260904022707 | 69 | 275 | 2.0 | 3.0 | 0.00 | 0.00 | 0.00 | 82 | 1014.3 |
| 20260904022204 | 69 | 277 | 3.0 | 3.0 | 0.00 | 0.00 | 0.00 | 82 | 1014.3 |
| 20260904021700 | 69 | 313 | 1.0 | 4.0 | 0.00 | 0.00 | 0.00 | 82 | 1013.9 |
| 20260904021154 | 70 | 252 | 1.0 | 3.0 | 0.00 | 0.00 | 0.00 | 82 | 1014.3 |
| 20260904020651 | 70 | 342 | 1.0 | 2.0 | 0.00 | 0.00 | 0.00 | 82 | 1014.3 |
| 20260904020144 | 70 | 330 | 1.0 | 3.0 | 0.00 | 0.00 | 0.00 | 81 | 1014.3 |
| 20260904015644 | 70 | 328 | 0.0 | 2.0 | 0.00 | 0.00 | 0.00 | 81 | 1014.3 |
| 20260904015143 | 71 | 323 | 0.0 | 4.0 | 0.00 | 0.00 | 0.00 | 81 | 1014.3 |
| 20260904014642 | 71 | 342 | 2.0 | 3.0 | 0.00 | 0.00 | 0.00 | 80 | 1014.3 |
| 20260904014138 | 71 | 305 | 2.0 | 4.0 | 0.00 | 0.00 | 0.00 | 79 | 1014.3 |
| 20260904013634 | 72 | 261 | 3.0 | 4.0 | 0.00 | 0.00 | 0.00 | 78 | 1014.3 |
| 20260904013130 | 72 | 10 | 2.0 | 6.0 | 0.00 | 0.00 | 0.00 | 78 | 1014.3 |
| 20260904012626 | 72 | 285 | 1.0 | 6.0 | 0.00 | 0.00 | 0.00 | 77 | 1014.3 |
| 20260904012124 | 72 | 311 | 1.0 | 2.0 | 0.00 | 0.00 | 0.00 | 77 | 1014.3 |
| 20260904011623 | 72 | 261 | 2.0 | 4.0 | 0.00 | 0.00 | 0.00 | 77 | 1014.3 |
| 20260904011119 | 72 | 325 | 2.0 | 4.0 | 0.00 | 0.00 | 0.00 | 76 | 1014.3 |
| 20260904010615 | 72 | 278 | 2.0 | 4.0 | 0.00 | 0.00 | 0.00 | 78 | 1014.3 |
| 20260904010111 | 72 | 325 | 2.0 | 2.0 | 0.00 | 0.00 | 0.00 | 78 | 1014.3 |
| 20260904005606 | 72 | 237 | 2.0 | 6.0 | 0.00 | 0.00 | 0.00 | 76 | 1014.6 |
| 20260904005101 | 73 | 254 | 4.0 | 6.0 | 0.00 | 0.00 | 0.00 | 74 | 1014.3 |
| 20260904004557 | 73 | 217 | 2.0 | 7.0 | 0.00 | 0.00 | 0.00 | 74 | 1014.3 |
| 20260904004051 | 73 | 195 | 1.0 | 6.0 | 0.00 | 0.00 | 0.00 | 73 | 1014.6 |
| 20260904003548 | 73 | 214 | 1.0 | 6.0 | 0.00 | 0.00 | 0.00 | 75 | 1014.3 |
| 20260904003043 | 73 | 253 | 5.0 | 7.0 | 0.00 | 0.00 | 0.00 | 74 | 1014.3 |
| 20260904002539 | 73 | 292 | 3.0 | 6.0 | 0.00 | 0.00 | 0.00 | 75 | 1014.3 |
| 20260904002038 | 74 | 306 | 5.0 | 7.0 | 0.00 | 0.00 | 0.00 | 72 | 1014.6 |
| 20260904001535 | 74 | 317 | 1.0 | 4.0 | 0.00 | 0.00 | 0.00 | 71 | 1014.6 |
| 20260904001033 | 75 | 215 | 3.0 | 3.0 | 0.00 | 0.00 | 0.00 | 70 | 1014.6 |
| 20260904000533 | 75 | 218 | 3.0 | 6.0 | 0.00 | 0.00 | 0.00 | 70 | 1014.6 |
| 20260904000029 | 76 | 246 | 3.0 | 4.0 | 0.00 | 0.00 | 0.00 | 68 | 1014.6 |
| 20260903235524 | 75 | 268 | 3.0 | 6.0 | 0.00 | 0.00 | 0.00 | 72 | 1014.6 |
| 20260903235019 | 75 | 284 | 3.0 | 6.0 | 0.00 | 0.00 | 0.00 | 70 | 1014.6 |
| 20260903234515 | 75 | 255 | 5.0 | 7.0 | 0.00 | 0.00 | 0.00 | 71 | 1014.6 |
| 20260903234010 | 76 | 263 | 3.0 | 6.0 | 0.00 | 0.00 | 0.00 | 70 | 1014.9 |
| 20260903233506 | 76 | 341 | 0.0 | 2.0 | 0.00 | 0.00 | 0.00 | 71 | 1014.9 |
| 20260903233001 | 75 | 313 | 3.0 | 7.0 | 0.00 | 0.00 | 0.00 | 72 | 1014.9 |
| 20260903232457 | 76 | 225 | 3.0 | 6.0 | 0.00 | 0.00 | 0.00 | 71 | 1014.9 |
| 20260903231956 | 76 | 217 | 6.0 | 7.0 | 0.00 | 0.00 | 0.00 | 69 | 1014.9 |
| 20260903231451 | 76 | 246 | 3.0 | 6.0 | 0.00 | 0.00 | 0.00 | 70 | 1014.9 |
| 20260903230945 | 77 | 224 | 4.0 | 6.0 | 0.00 | 0.00 | 0.00 | 69 | 1014.9 |
| 20260903230442 | 75 | 238 | 2.0 | 6.0 | 0.00 | 0.00 | 0.00 | 71 | 1014.9 |
| 20260903225938 | 77 | 265 | 3.0 | 6.0 | 0.00 | 0.00 | 0.00 | 68 | 1015.3 |
| 20260903225433 | 76 | 246 | 3.0 | 8.0 | 0.00 | 0.00 | 0.00 | 70 | 1014.9 |
| 20260903224929 | 76 | 335 | 3.0 | 7.0 | 0.00 | 0.00 | 0.00 | 70 | 1014.9 |
| 20260903224425 | 76 | 203 | 4.0 | 7.0 | 0.00 | 0.00 | 0.00 | 71 | 1015.3 |
| 20260903223921 | 77 | 315 | 1.0 | 6.0 | 0.00 | 0.00 | 0.00 | 70 | 1015.3 |
| 20260903223420 | 77 | 199 | 4.0 | 6.0 | 0.00 | 0.00 | 0.00 | 68 | 1015.3 |
| 20260903222919 | 77 | 287 | 1.0 | 4.0 | 0.00 | 0.00 | 0.00 | 69 | 1015.3 |
| 20260903222415 | 77 | 325 | 2.0 | 4.0 | 0.00 | 0.00 | 0.00 | 69 | 1015.6 |
| 20260903221915 | 77 | 328 | 1.0 | 6.0 | 0.00 | 0.00 | 0.00 | 68 | 1015.3 |
| 20260903221414 | 76 | 200 | 2.0 | 6.0 | 0.00 | 0.00 | 0.00 | 70 | 1015.3 |
| 20260903220912 | 76 | 259 | 3.0 | 4.0 | 0.00 | 0.00 | 0.00 | 69 | 1015.6 |
| 20260903220406 | 76 | 218 | 4.0 | 7.0 | 0.00 | 0.00 | 0.00 | 70 | 1015.6 |
| 20260903215904 | 77 | 209 | 4.0 | 7.0 | 0.00 | 0.00 | 0.00 | 69 | 1016.0 |
| 20260903215401 | 77 | 221 | 3.0 | 7.0 | 0.00 | 0.00 | 0.00 | 69 | 1015.6 |
| 20260903214859 | 77 | 257 | 1.0 | 4.0 | 0.00 | 0.00 | 0.00 | 70 | 1015.6 |
| 20260903214355 | 77 | 347 | 2.0 | 4.0 | 0.00 | 0.00 | 0.00 | 69 | 1016.0 |
| 20260903213854 | 76 | 270 | 3.0 | 7.0 | 0.00 | 0.00 | 0.00 | 71 | 1015.6 |
| 20260903213349 | 76 | 267 | 5.0 | 7.0 | 0.00 | 0.00 | 0.00 | 70 | 1016.0 |
| 20260903212846 | 77 | 322 | 3.0 | 6.0 | 0.00 | 0.00 | 0.00 | 69 | 1015.6 |
| 20260903212342 | 76 | 234 | 4.0 | 9.0 | 0.00 | 0.00 | 0.00 | 70 | 1016.0 |
| 20260903211841 | 76 | 295 | 3.0 | 7.0 | 0.00 | 0.00 | 0.00 | 69 | 1016.0 |
| 20260903211337 | 76 | 262 | 1.0 | 7.0 | 0.00 | 0.00 | 0.00 | 70 | 1015.6 |
| 20260903210833 | 76 | 342 | 4.0 | 8.0 | 0.00 | 0.00 | 0.00 | 69 | 1015.6 |
| 20260903210327 | 76 | 318 | 4.0 | 8.0 | 0.00 | 0.00 | 0.00 | 69 | 1015.6 |
| 20260903205822 | 76 | 244 | 4.0 | 7.0 | 0.00 | 0.00 | 0.00 | 69 | 1016.0 |
| 20260903205322 | 76 | 228 | 5.0 | 8.0 | 0.00 | 0.00 | 0.00 | 69 | 1016.3 |
| 20260903204817 | 76 | 203 | 6.0 | 8.0 | 0.00 | 0.00 | 0.00 | 69 | 1016.0 |
| 20260903204313 | 77 | 320 | 4.0 | 7.0 | 0.00 | 0.00 | 0.00 | 69 | 1016.0 |
| 20260903203808 | 76 | 252 | 6.0 | 9.0 | 0.00 | 0.00 | 0.00 | 69 | 1016.0 |
| 20260903203304 | 76 | 188 | 4.0 | 7.0 | 0.00 | 0.00 | 0.00 | 69 | 1016.3 |
| 20260903202803 | 76 | 222 | 4.0 | 7.0 | 0.00 | 0.00 | 0.00 | 69 | 1016.0 |
| 20260903202300 | 76 | 188 | 6.0 | 7.0 | 0.00 | 0.00 | 0.00 | 68 | 1016.0 |
| 20260903201759 | 77 | 203 | 2.0 | 6.0 | 0.00 | 0.00 | 0.00 | 69 | 1016.0 |
| 20260903201254 | 77 | 255 | 3.0 | 8.0 | 0.00 | 0.00 | 0.00 | 67 | 1016.0 |
| 20260903200753 | 77 | 295 | 3.0 | 8.0 | 0.00 | 0.00 | 0.00 | 68 | 1016.0 |
| 20260903200248 | 76 | 222 | 3.0 | 8.0 | 0.00 | 0.00 | 0.00 | 68 | 1016.0 |
| 20260903195743 | 77 | 218 | 4.0 | 7.0 | 0.00 | 0.00 | 0.00 | 67 | 1016.0 |
| 20260903195240 | 77 | 191 | 2.0 | 7.0 | 0.00 | 0.00 | 0.00 | 66 | 1016.0 |
| 20260903194739 | 77 | 274 | 3.0 | 7.0 | 0.00 | 0.00 | 0.00 | 66 | 1016.3 |
| 20260903194235 | 77 | 152 | 5.0 | 9.0 | 0.00 | 0.00 | 0.00 | 67 | 1016.3 |
| 20260903193730 | 77 | 241 | 4.0 | 6.0 | 0.00 | 0.00 | 0.00 | 66 | 1016.3 |
| 20260903193226 | 77 | 146 | 3.0 | 8.0 | 0.00 | 0.00 | 0.00 | 67 | 1016.3 |
| 20260903192722 | 78 | 261 | 4.0 | 4.0 | 0.00 | 0.00 | 0.00 | 66 | 1016.6 |
| 20260903192217 | 76 | 298 | 2.0 | 4.0 | 0.00 | 0.00 | 0.00 | 67 | 1016.6 |
| 20260903191713 | 77 | 248 | 6.0 | 7.0 | 0.00 | 0.00 | 0.00 | 68 | 1016.6 |
| 20260903191209 | 77 | 320 | 5.0 | 7.0 | 0.00 | 0.00 | 0.00 | 67 | 1017.0 |
| 20260903190703 | 78 | 282 | 3.0 | 7.0 | 0.00 | 0.00 | 0.00 | 66 | 1016.6 |
| 20260903190203 | 77 | 289 | 3.0 | 6.0 | 0.00 | 0.00 | 0.00 | 66 | 1016.6 |
| 20260903185658 | 78 | 174 | 3.0 | 8.0 | 0.00 | 0.00 | 0.00 | 67 | 1016.6 |
| 20260903185152 | 77 | 325 | 2.0 | 4.0 | 0.00 | 0.00 | 0.00 | 66 | 1017.0 |
| 20260903184649 | 77 | 280 | 3.0 | 6.0 | 0.00 | 0.00 | 0.00 | 67 | 1017.0 |
| 20260903184145 | 77 | 250 | 4.0 | 7.0 | 0.00 | 0.00 | 0.00 | 67 | 1017.0 |
| 20260903183643 | 77 | 252 | 2.0 | 4.0 | 0.00 | 0.00 | 0.00 | 66 | 1017.0 |
| 20260903183139 | 77 | 184 | 3.0 | 4.0 | 0.00 | 0.00 | 0.00 | 67 | 1017.0 |
| 20260903182638 | 77 | 210 | 3.0 | 3.0 | 0.00 | 0.00 | 0.00 | 66 | 1017.0 |
| 20260903182134 | 77 | 249 | 2.0 | 7.0 | 0.00 | 0.00 | 0.00 | 67 | 1017.0 |
| 20260903181632 | 77 | 180 | 2.0 | 4.0 | 0.00 | 0.00 | 0.00 | 65 | 1017.0 |
| 20260903181127 | 77 | 72 | 2.0 | 4.0 | 0.00 | 0.00 | 0.00 | 66 | 1017.0 |
| 20260903180622 | 78 | 266 | 3.0 | 7.0 | 0.00 | 0.00 | 0.00 | 64 | 1017.0 |
| 20260903180116 | 77 | 315 | 0.0 | 2.0 | 0.00 | 0.00 | 0.00 | 66 | 1017.3 |
| 20260903175616 | 77 | 252 | 3.0 | 3.0 | 0.00 | 0.00 | 0.00 | 66 | 1017.0 |
| 20260903175115 | 78 | 248 | 1.0 | 2.0 | 0.00 | 0.00 | 0.00 | 63 | 1017.3 |
| 20260903174610 | 77 | 325 | 0.0 | 3.0 | 0.00 | 0.00 | 0.00 | 64 | 1017.0 |
| 20260903174105 | 78 | 339 | 1.0 | 2.0 | 0.00 | 0.00 | 0.00 | 62 | 1017.0 |
| 20260903173600 | 77 | 262 | 2.0 | 6.0 | 0.00 | 0.00 | 0.00 | 64 | 1017.3 |
| 20260903173056 | 77 | 286 | 1.0 | 2.0 | 0.00 | 0.00 | 0.00 | 64 | 1017.3 |
| 20260903172556 | 77 | 350 | 0.0 | 3.0 | 0.00 | 0.00 | 0.00 | 66 | 1017.3 |
| 20260903172052 | 77 | 316 | 1.0 | 4.0 | 0.00 | 0.00 | 0.00 | 65 | 1017.3 |
| 20260903171551 | 76 | 31 | 2.0 | 3.0 | 0.00 | 0.00 | 0.00 | 66 | 1017.3 |
| 20260903171047 | 76 | 348 | 1.0 | 2.0 | 0.00 | 0.00 | 0.00 | 65 | 1017.3 |
| 20260903170546 | 76 | 37 | 1.0 | 3.0 | 0.00 | 0.00 | 0.00 | 67 | 1017.3 |
| 20260903170042 | 74 | 13 | 1.0 | 2.0 | 0.00 | 0.00 | 0.00 | 70 | 1017.6 |
| 20260903165538 | 73 | 225 | 2.0 | 2.0 | 0.00 | 0.00 | 0.00 | 72 | 1017.3 |
| 20260903165034 | 72 | 32 | 0.0 | 2.0 | 0.00 | 0.00 | 0.00 | 73 | 1017.3 |
| 20260903164535 | 73 | 215 | 3.0 | 4.0 | 0.00 | 0.00 | 0.00 | 72 | 1017.3 |
| 20260903164031 | 73 | 80 | 1.0 | 3.0 | 0.00 | 0.00 | 0.00 | 72 | 1017.0 |
| 20260903163525 | 72 | 75 | 1.0 | 2.0 | 0.00 | 0.00 | 0.00 | 74 | 1017.3 |
| 20260903163021 | 72 | 328 | 0.0 | 1.0 | 0.00 | 0.00 | 0.00 | 75 | 1017.0 |
| 20260903162518 | 71 | 234 | 0.0 | 2.0 | 0.00 | 0.00 | 0.00 | 75 | 1017.3 |
| 20260903162013 | 71 | 35 | 2.0 | 3.0 | 0.00 | 0.00 | 0.00 | 75 | 1017.0 |
| 20260903161508 | 71 | 264 | 1.0 | 2.0 | 0.00 | 0.00 | 0.00 | 76 | 1017.3 |
| 20260903161004 | 71 | 340 | 0.0 | 1.0 | 0.00 | 0.00 | 0.00 | 76 | 1017.3 |
| 20260903160503 | 71 | 18 | 1.0 | 2.0 | 0.00 | 0.00 | 0.00 | 76 | 1017.3 |
| 20260903155957 | 71 | 343 | 0.0 | 1.0 | 0.00 | 0.00 | 0.00 | 76 | 1017.3 |
| 20260903155456 | 71 | 41 | 0.0 | 1.0 | 0.00 | 0.00 | 0.00 | 77 | 1017.3 |
| 20260903154953 | 71 | 329 | 0.0 | 0.0 | 0.00 | 0.00 | 0.00 | 77 | 1017.3 |
| 20260903154448 | 71 | 6 | 1.0 | 2.0 | 0.00 | 0.00 | 0.00 | 77 | 1017.0 |
| 20260903153944 | 71 | 9 | 0.0 | 0.0 | 0.00 | 0.00 | 0.00 | 77 | 1017.3 |
| 20260903153439 | 72 | 285 | 1.0 | 2.0 | 0.00 | 0.00 | 0.00 | 76 | 1017.3 |
| 20260903152936 | 73 | 346 | 0.0 | 1.0 | 0.00 | 0.00 | 0.00 | 75 | 1017.0 |
| 20260903152431 | 73 | 96 | 1.0 | 3.0 | 0.00 | 0.00 | 0.00 | 74 | 1017.3 |
| 20260903151927 | 73 | 238 | 0.0 | 2.0 | 0.00 | 0.00 | 0.00 | 76 | 1017.0 |
| 20260903151421 | 72 | 336 | 0.0 | 1.0 | 0.00 | 0.00 | 0.00 | 76 | 1017.0 |
| 20260903150916 | 73 | 294 | 2.0 | 3.0 | 0.00 | 0.00 | 0.00 | 76 | 1017.0 |
| 20260903150411 | 73 | 129 | 1.0 | 3.0 | 0.00 | 0.00 | 0.00 | 75 | 1017.3 |
| 20260903145905 | 73 | 90 | 0.0 | 1.0 | 0.00 | 0.00 | 0.00 | 76 | 1017.0 |
| 20260903145401 | 73 | 3 | 0.0 | 1.0 | 0.00 | 0.00 | 0.00 | 76 | 1017.0 |
| 20260903144900 | 73 | 56 | 1.0 | 2.0 | 0.00 | 0.00 | 0.00 | 75 | 1017.0 |
| 20260903144355 | 72 | 24 | 0.0 | 1.0 | 0.00 | 0.00 | 0.00 | 78 | 1017.0 |
| 20260903143850 | 72 | 307 | 1.0 | 1.0 | 0.00 | 0.00 | 0.00 | 77 | 1017.0 |
| 20260903143347 | 72 | 349 | 0.0 | 0.0 | 0.00 | 0.00 | 0.00 | 78 | 1016.6 |
| 20260903142842 | 71 | 346 | 0.0 | 1.0 | 0.00 | 0.00 | 0.00 | 79 | 1017.0 |
| 20260903142338 | 71 | 17 | 0.0 | 1.0 | 0.00 | 0.00 | 0.00 | 80 | 1017.0 |
| 20260903141834 | 70 | 3 | 0.0 | 1.0 | 0.00 | 0.00 | 0.00 | 82 | 1017.0 |
| 20260903141329 | 69 | 13 | 0.0 | 0.0 | 0.00 | 0.00 | 0.00 | 84 | 1016.6 |
| 20260903140824 | 68 | 352 | 0.0 | 0.0 | 0.00 | 0.00 | 0.00 | 86 | 1016.6 |
| 20260903140319 | 68 | 6 | 0.0 | 0.0 | 0.00 | 0.00 | 0.00 | 87 | 1016.6 |
| 20260903135815 | 67 | 354 | 0.0 | 1.0 | 0.00 | 0.00 | 0.00 | 87 | 1016.6 |
| 20260903135310 | 67 | 354 | 1.0 | 1.0 | 0.00 | 0.00 | 0.00 | 88 | 1016.6 |
| 20260903134809 | 67 | 22 | 1.0 | 1.0 | 0.00 | 0.00 | 0.00 | 88 | 1016.6 |
| 20260903134305 | 67 | 57 | 0.0 | 1.0 | 0.00 | 0.00 | 0.00 | 88 | 1016.6 |
| 20260903133802 | 67 | 10 | 0.0 | 2.0 | 0.00 | 0.00 | 0.00 | 88 | 1016.3 |
| 20260903133259 | 67 | 68 | 1.0 | 2.0 | 0.00 | 0.00 | 0.00 | 88 | 1016.6 |
| 20260903132758 | 67 | 347 | 0.0 | 2.0 | 0.00 | 0.00 | 0.00 | 88 | 1016.3 |
| 20260903132254 | 67 | 68 | 1.0 | 1.0 | 0.00 | 0.00 | 0.00 | 88 | 1016.6 |
| 20260903131749 | 67 | 346 | 0.0 | 1.0 | 0.00 | 0.00 | 0.00 | 88 | 1016.6 |
| 20260903131248 | 67 | 55 | 1.0 | 2.0 | 0.00 | 0.00 | 0.00 | 88 | 1016.6 |
| 20260903130743 | 67 | 1 | 0.0 | 1.0 | 0.00 | 0.00 | 0.00 | 88 | 1016.6 |
| 20260903130238 | 67 | 351 | 0.0 | 2.0 | 0.00 | 0.00 | 0.00 | 88 | 1016.6 |
| 20260903125736 | 67 | 343 | 0.0 | 1.0 | 0.00 | 0.00 | 0.00 | 88 | 1016.6 |
| 20260903125232 | 67 | 41 | 1.0 | 2.0 | 0.00 | 0.00 | 0.00 | 88 | 1016.6 |
| 20260903124731 | 67 | 51 | 2.0 | 3.0 | 0.00 | 0.00 | 0.00 | 88 | 1016.6 |
| 20260903124226 | 67 | 358 | 2.0 | 3.0 | 0.00 | 0.00 | 0.00 | 88 | 1016.3 |
| 20260903123725 | 67 | 48 | 2.0 | 2.0 | 0.00 | 0.00 | 0.00 | 88 | 1016.3 |
| 20260903123224 | 67 | 13 | 1.0 | 2.0 | 0.00 | 0.00 | 0.00 | 88 | 1016.3 |
| 20260903122723 | 67 | 345 | 0.0 | 1.0 | 0.00 | 0.00 | 0.00 | 88 | 1016.3 |
| 20260903122218 | 67 | 353 | 0.0 | 2.0 | 0.00 | 0.00 | 0.00 | 88 | 1016.6 |
| 20260903121716 | 67 | 354 | 0.0 | 1.0 | 0.00 | 0.00 | 0.00 | 88 | 1016.6 |
| 20260903121213 | 67 | 331 | 0.0 | 2.0 | 0.00 | 0.00 | 0.00 | 88 | 1016.6 |
| 20260903120712 | 67 | 346 | 0.0 | 1.0 | 0.00 | 0.00 | 0.00 | 88 | 1016.3 |
| 20260903120206 | 67 | 329 | 1.0 | 1.0 | 0.00 | 0.00 | 0.00 | 88 | 1016.6 |
| 20260903115705 | 67 | 37 | 1.0 | 3.0 | 0.00 | 0.00 | 0.00 | 88 | 1016.3 |
| 20260903115201 | 67 | 345 | 0.0 | 2.0 | 0.00 | 0.00 | 0.00 | 88 | 1016.6 |
| 20260903114655 | 67 | 70 | 2.0 | 2.0 | 0.00 | 0.00 | 0.00 | 88 | 1016.6 |
| 20260903114150 | 67 | 19 | 0.0 | 1.0 | 0.00 | 0.00 | 0.00 | 88 | 1016.6 |
| 20260903113645 | 67 | 12 | 0.0 | 2.0 | 0.00 | 0.00 | 0.00 | 88 | 1016.6 |
| 20260903113142 | 67 | 8 | 2.0 | 2.0 | 0.00 | 0.00 | 0.00 | 88 | 1016.3 |
| 20260903112637 | 67 | 350 | 1.0 | 2.0 | 0.00 | 0.00 | 0.00 | 89 | 1016.6 |
| 20260903112132 | 67 | 16 | 2.0 | 2.0 | 0.00 | 0.00 | 0.00 | 89 | 1016.6 |
| 20260903111631 | 67 | 36 | 1.0 | 1.0 | 0.00 | 0.00 | 0.00 | 89 | 1016.6 |
| 20260903111127 | 66 | 1 | 0.0 | 1.0 | 0.00 | 0.00 | 0.00 | 89 | 1016.3 |
| 20260903110623 | 66 | 43 | 1.0 | 3.0 | 0.00 | 0.00 | 0.00 | 89 | 1016.3 |
| 20260903110118 | 66 | 359 | 0.0 | 3.0 | 0.00 | 0.00 | 0.00 | 89 | 1017.0 |
| 20260903105612 | 66 | 6 | 1.0 | 2.0 | 0.00 | 0.00 | 0.00 | 89 | 1017.0 |
| 20260903105102 | 66 | 28 | 1.0 | 2.0 | 0.00 | 0.00 | 0.00 | 89 | 1016.6 |
| 20260903104602 | 66 | 28 | 1.0 | 2.0 | 0.00 | 0.00 | 0.00 | 89 | 1016.6 |
| 20260903104057 | 66 | 47 | 2.0 | 2.0 | 0.00 | 0.00 | 0.00 | 89 | 1017.0 |
| 20260903103553 | 66 | 28 | 0.0 | 2.0 | 0.00 | 0.00 | 0.00 | 89 | 1016.6 |
| 20260903103049 | 66 | 357 | 0.0 | 1.0 | 0.00 | 0.00 | 0.00 | 88 | 1017.0 |
| 20260903102544 | 66 | 52 | 2.0 | 2.0 | 0.00 | 0.00 | 0.00 | 88 | 1016.6 |
| 20260903102043 | 66 | 18 | 2.0 | 2.0 | 0.00 | 0.00 | 0.00 | 88 | 1016.6 |
| 20260903101538 | 66 | 3 | 1.0 | 2.0 | 0.00 | 0.00 | 0.00 | 88 | 1017.0 |
| 20260903101034 | 66 | 35 | 1.0 | 2.0 | 0.00 | 0.00 | 0.00 | 87 | 1016.6 |
| 20260903100533 | 66 | 76 | 1.0 | 2.0 | 0.00 | 0.00 | 0.00 | 87 | 1016.6 |
| 20260903100032 | 66 | 36 | 1.0 | 2.0 | 0.00 | 0.00 | 0.00 | 86 | 1017.0 |
| 20260903095531 | 66 | 54 | 2.0 | 2.0 | 0.00 | 0.00 | 0.00 | 85 | 1016.6 |
| 20260903095025 | 66 | 27 | 1.0 | 1.0 | 0.00 | 0.00 | 0.00 | 85 | 1016.6 |
| 20260903094520 | 66 | 28 | 1.0 | 2.0 | 0.00 | 0.00 | 0.00 | 84 | 1016.6 |
| 20260903094016 | 66 | 39 | 1.0 | 1.0 | 0.00 | 0.00 | 0.00 | 84 | 1016.6 |
| 20260903093516 | 66 | 348 | 0.0 | 0.0 | 0.00 | 0.00 | 0.00 | 83 | 1017.0 |
| 20260903093011 | 66 | 12 | 0.0 | 1.0 | 0.00 | 0.00 | 0.00 | 83 | 1017.0 |
| 20260903092510 | 65 | 346 | 1.0 | 2.0 | 0.00 | 0.00 | 0.00 | 83 | 1017.0 |
| 20260903092005 | 65 | 340 | 0.0 | 0.0 | 0.00 | 0.00 | 0.00 | 83 | 1017.0 |
| 20260903091503 | 65 | 352 | 0.0 | 2.0 | 0.00 | 0.00 | 0.00 | 83 | 1017.0 |